IGO704 VIDP-VOHS

Flight info

Callsign IGO704
Flight time 1h 47m
Altitude 34000
Route AKRIB6C AKRIB Z16 BULDI Q23 PEDMA DCT SUSMA NAMSA8
Aircraft A21N/M-SDE2E3FGHIRWXY/LB1

Departure

Time 2026-04-12 09:59
Airport Indira Gandhi International Airport (VIDP)

Arrival

Time 2026-04-12 11:47
Airport Rajiv Gandhi International Airport (VOHS)
Time Latitude Longitude Altitude Speed Heading
2026-04-12 09:35 28.55199 77.08720 753 ft 0 kts 14°
2026-04-12 09:47 28.55184 77.08715 750 ft 2 kts 14°
2026-04-12 09:47 28.55168 77.08711 749 ft 2 kts 14°
2026-04-12 09:47 28.55152 77.08706 750 ft 2 kts 15°
2026-04-12 09:47 28.55136 77.08701 750 ft 2 kts 20°
2026-04-12 09:48 28.55123 77.08690 751 ft 2 kts 58°
2026-04-12 09:48 28.55122 77.08676 750 ft 1 kts 117°
2026-04-12 09:48 28.55123 77.08675 750 ft 0 kts 117°
2026-04-12 09:51 28.55122 77.08677 750 ft 0 kts 121°
2026-04-12 09:52 28.55109 77.08694 751 ft 6 kts 132°
2026-04-12 09:52 28.55065 77.08733 754 ft 11 kts 147°
2026-04-12 09:52 28.54986 77.08782 755 ft 14 kts 150°
2026-04-12 09:52 28.54898 77.08786 757 ft 12 kts 194°
2026-04-12 09:53 28.54822 77.08786 757 ft 10 kts 149°
2026-04-12 09:53 28.54787 77.08846 757 ft 8 kts 107°
2026-04-12 09:53 28.54772 77.08906 759 ft 8 kts 104°
2026-04-12 09:53 28.54754 77.08983 757 ft 12 kts 105°
2026-04-12 09:54 28.54732 77.09083 762 ft 14 kts 103°
2026-04-12 09:54 28.54706 77.09201 764 ft 17 kts 104°
2026-04-12 09:54 28.54674 77.09339 765 ft 19 kts 104°
2026-04-12 09:54 28.54639 77.09494 767 ft 21 kts 105°
2026-04-12 09:55 28.54599 77.09663 770 ft 23 kts 104°
2026-04-12 09:55 28.54561 77.09829 772 ft 21 kts 103°
2026-04-12 09:55 28.54527 77.09982 774 ft 19 kts 104°
2026-04-12 09:55 28.54496 77.10118 776 ft 17 kts 104°
2026-04-12 09:56 28.54467 77.10243 778 ft 15 kts 104°
2026-04-12 09:56 28.54441 77.10353 780 ft 14 kts 105°
2026-04-12 09:56 28.54418 77.10451 781 ft 12 kts 104°
2026-04-12 09:56 28.54394 77.10537 782 ft 11 kts 121°
2026-04-12 09:57 28.54336 77.10566 783 ft 9 kts 182°
2026-04-12 09:57 28.54280 77.10552 783 ft 9 kts 194°
2026-04-12 09:57 28.54229 77.10524 783 ft 5 kts 250°
2026-04-12 09:57 28.54227 77.10490 783 ft 1 kts 287°
2026-04-12 09:58 28.54228 77.10482 782 ft 1 kts 283°
2026-04-12 09:58 28.54253 77.10369 781 ft 36 kts 284°
2026-04-12 09:58 28.54363 77.09855 772 ft 98 kts 283°
2026-04-12 09:58 28.54573 77.08871 758 ft 159 kts 283°
2026-04-12 09:59 28.54858 77.07532 1017 ft 180 kts 283°
2026-04-12 09:59 28.55160 77.06091 1367 ft 190 kts 283°
2026-04-12 09:59 28.55476 77.04628 1858 ft 193 kts 284°
2026-04-12 09:59 28.55776 77.03122 2405 ft 197 kts 272°
2026-04-12 10:00 28.55393 77.01592 2700 ft 218 kts 230°
2026-04-12 10:00 28.54066 77.00628 2950 ft 243 kts 191°
2026-04-12 10:00 28.52347 77.00512 3454 ft 257 kts 180°
2026-04-12 10:00 28.50533 77.00470 4204 ft 262 kts 183°
2026-04-12 10:01 28.48699 77.00296 5027 ft 266 kts 186°
2026-04-12 10:01 28.46848 77.00012 5886 ft 269 kts 189°
2026-04-12 10:01 28.44987 76.99659 6712 ft 273 kts 190°
2026-04-12 10:01 28.43110 76.99267 7504 ft 276 kts 191°
2026-04-12 10:02 28.41210 76.98848 8300 ft 280 kts 191°
2026-04-12 10:02 28.39314 76.98420 9057 ft 283 kts 191°
2026-04-12 10:02 28.37365 76.97974 9816 ft 286 kts 191°
2026-04-12 10:02 28.35401 76.97522 10545 ft 290 kts 191°
2026-04-12 10:03 28.33407 76.97062 11277 ft 293 kts 191°
2026-04-12 10:03 28.31396 76.96597 12002 ft 296 kts 191°
2026-04-12 10:03 28.29371 76.96129 12717 ft 300 kts 191°
2026-04-12 10:03 28.28005 76.95813 13192 ft 302 kts 191°
2026-04-12 10:04 28.25234 76.95173 14119 ft 306 kts 191°
2026-04-12 10:04 28.23159 76.94716 14795 ft 309 kts 190°
2026-04-12 10:04 28.20987 76.94299 15176 ft 324 kts 189°
2026-04-12 10:04 28.18693 76.93877 15434 ft 342 kts 189°
2026-04-12 10:05 28.16283 76.93438 15699 ft 358 kts 189°
2026-04-12 10:05 28.13761 76.92979 15996 ft 372 kts 189°
2026-04-12 10:05 28.12054 76.92667 16299 ft 377 kts 189°
2026-04-12 10:05 28.08588 76.92035 17034 ft 384 kts 189°
2026-04-12 10:06 28.05929 76.91550 17608 ft 387 kts 189°
2026-04-12 10:06 28.04157 76.91226 17980 ft 389 kts 189°
2026-04-12 10:06 28.01474 76.90737 18529 ft 393 kts 189°
2026-04-12 10:06 27.98760 76.90242 19053 ft 396 kts 189°
2026-04-12 10:07 27.96023 76.89743 19578 ft 399 kts 189°
2026-04-12 10:07 27.93269 76.89241 20074 ft 402 kts 189°
2026-04-12 10:07 27.90522 76.88740 20572 ft 405 kts 189°
2026-04-12 10:07 27.87725 76.88231 21037 ft 408 kts 189°
2026-04-12 10:08 27.84903 76.87717 21500 ft 411 kts 189°
2026-04-12 10:08 27.82059 76.87200 21962 ft 414 kts 189°
2026-04-12 10:08 27.79201 76.86680 22421 ft 417 kts 189°
2026-04-12 10:08 27.76363 76.86164 22851 ft 419 kts 189°
2026-04-12 10:09 27.73463 76.85638 23266 ft 422 kts 189°
2026-04-12 10:09 27.70555 76.85110 23679 ft 425 kts 189°
2026-04-12 10:09 27.67624 76.84578 24068 ft 427 kts 189°
2026-04-12 10:09 27.64674 76.84043 24451 ft 430 kts 189°
2026-04-12 10:10 27.61704 76.83505 24818 ft 432 kts 189°
2026-04-12 10:10 27.58765 76.82972 25170 ft 435 kts 189°
2026-04-12 10:10 27.55764 76.82429 25515 ft 437 kts 189°
2026-04-12 10:10 27.52749 76.81883 25847 ft 439 kts 189°
2026-04-12 10:11 27.49715 76.81334 26162 ft 441 kts 189°
2026-04-12 10:11 27.46670 76.80784 26479 ft 444 kts 189°
2026-04-12 10:11 27.43642 76.80249 26776 ft 446 kts 187°
2026-04-12 10:11 27.40550 76.79978 27055 ft 448 kts 181°
2026-04-12 10:12 27.37420 76.79975 27332 ft 450 kts 179°
2026-04-12 10:12 27.34271 76.80083 27606 ft 451 kts 178°
2026-04-12 10:12 27.31161 76.80242 27860 ft 453 kts 177°
2026-04-12 10:12 27.27990 76.80420 28108 ft 455 kts 177°
2026-04-12 10:13 27.24808 76.80595 28362 ft 456 kts 177°
2026-04-12 10:13 27.21633 76.80760 28705 ft 456 kts 177°
2026-04-12 10:13 27.18503 76.80913 29038 ft 455 kts 178°
2026-04-12 10:13 27.15334 76.81061 29372 ft 454 kts 178°
2026-04-12 10:14 27.12169 76.81203 29684 ft 453 kts 178°
2026-04-12 10:14 27.09015 76.81343 29991 ft 453 kts 178°
2026-04-12 10:14 27.05866 76.81482 30283 ft 452 kts 178°
2026-04-12 10:14 27.02717 76.81621 30559 ft 452 kts 178°
2026-04-12 10:15 26.99573 76.81760 30822 ft 451 kts 178°
2026-04-12 10:15 26.96444 76.81898 31087 ft 451 kts 178°
2026-04-12 10:15 26.93344 76.82036 31327 ft 450 kts 178°
2026-04-12 10:15 26.90212 76.82175 31561 ft 450 kts 178°
2026-04-12 10:16 26.87078 76.82314 31803 ft 449 kts 178°
2026-04-12 10:16 26.83950 76.82453 32021 ft 449 kts 178°
2026-04-12 10:16 26.80822 76.82591 32235 ft 449 kts 178°
2026-04-12 10:16 26.77694 76.82730 32441 ft 448 kts 178°
2026-04-12 10:17 26.74610 76.82867 32643 ft 448 kts 178°
2026-04-12 10:17 26.71479 76.83005 32832 ft 448 kts 178°
2026-04-12 10:17 26.68366 76.83143 33014 ft 447 kts 178°
2026-04-12 10:17 26.65293 76.83279 33190 ft 447 kts 178°
2026-04-12 10:18 26.62183 76.83416 33354 ft 447 kts 178°
2026-04-12 10:18 26.59075 76.83553 33514 ft 446 kts 178°
2026-04-12 10:18 26.55964 76.83691 33668 ft 446 kts 178°
2026-04-12 10:18 26.52855 76.83827 33823 ft 446 kts 178°
2026-04-12 10:19 26.49751 76.83964 33963 ft 446 kts 178°
2026-04-12 10:19 26.43562 76.84236 34000 ft 447 kts 178°
2026-04-12 10:20 26.37350 76.84510 34000 ft 446 kts 178°
2026-04-12 10:20 26.31134 76.84783 34001 ft 446 kts 178°
2026-04-12 10:21 26.24918 76.85056 34001 ft 446 kts 178°
2026-04-12 10:21 26.18748 76.85326 33998 ft 446 kts 178°
2026-04-12 10:22 26.12533 76.85599 34000 ft 447 kts 178°
2026-04-12 10:22 26.06335 76.85870 33999 ft 446 kts 178°
2026-04-12 10:23 26.00128 76.86141 34001 ft 445 kts 178°
2026-04-12 10:23 25.93956 76.86411 34000 ft 446 kts 178°
2026-04-12 10:24 25.87754 76.86682 34000 ft 446 kts 178°
2026-04-12 10:24 25.81544 76.86952 34000 ft 446 kts 178°
2026-04-12 10:25 25.75331 76.87223 34000 ft 446 kts 178°
2026-04-12 10:25 25.69150 76.87492 34000 ft 446 kts 178°
2026-04-12 10:26 25.62921 76.87762 34000 ft 446 kts 178°
2026-04-12 10:26 25.56745 76.88030 34000 ft 446 kts 178°
2026-04-12 10:27 25.50521 76.88300 34000 ft 446 kts 178°
2026-04-12 10:27 25.44315 76.88569 34000 ft 446 kts 178°
2026-04-12 10:28 25.38091 76.88838 33998 ft 446 kts 178°
2026-04-12 10:28 25.31913 76.89106 34000 ft 446 kts 178°
2026-04-12 10:29 25.25678 76.89375 34000 ft 446 kts 178°
2026-04-12 10:29 25.19498 76.89641 34000 ft 446 kts 178°
2026-04-12 10:30 25.13285 76.89909 34001 ft 446 kts 178°
2026-04-12 10:30 25.07063 76.90177 33999 ft 447 kts 178°
2026-04-12 10:31 25.00882 76.90443 34000 ft 447 kts 178°
2026-04-12 10:31 24.94660 76.90715 34000 ft 447 kts 178°
2026-04-12 10:32 24.88433 76.90989 34000 ft 447 kts 178°
2026-04-12 10:32 24.82260 76.91261 34000 ft 447 kts 178°
2026-04-12 10:33 24.76022 76.91535 34000 ft 446 kts 178°
2026-04-12 10:33 24.69804 76.91808 34000 ft 446 kts 178°
2026-04-12 10:34 24.63628 76.92078 34001 ft 447 kts 178°
2026-04-12 10:34 24.57401 76.92351 34000 ft 446 kts 178°
2026-04-12 10:35 24.51213 76.92622 34001 ft 447 kts 178°
2026-04-12 10:35 24.45021 76.92892 34000 ft 447 kts 178°
2026-04-12 10:36 24.38802 76.93164 34000 ft 447 kts 178°
2026-04-12 10:36 24.32570 76.93437 34000 ft 447 kts 178°
2026-04-12 10:37 24.26346 76.93710 34001 ft 447 kts 178°
2026-04-12 10:37 24.20160 76.93981 34000 ft 447 kts 178°
2026-04-12 10:38 24.13934 76.94253 34001 ft 447 kts 178°
2026-04-12 10:38 24.07747 76.94523 34000 ft 447 kts 178°
2026-04-12 10:39 24.01507 76.94796 34000 ft 447 kts 178°
2026-04-12 10:39 23.95314 76.95066 34000 ft 447 kts 178°
2026-04-12 10:40 23.89086 76.95337 33999 ft 447 kts 178°
2026-04-12 10:40 23.82873 76.95608 34000 ft 447 kts 178°
2026-04-12 10:41 23.76691 76.95876 34001 ft 447 kts 178°
2026-04-12 10:41 23.70464 76.96147 33999 ft 447 kts 178°
2026-04-12 10:42 23.64242 76.96417 34000 ft 447 kts 178°
2026-04-12 10:42 23.58043 76.96686 34000 ft 447 kts 178°
2026-04-12 10:43 23.48696 76.97090 34000 ft 447 kts 178°
2026-04-12 10:43 23.42505 76.97358 34000 ft 447 kts 178°
2026-04-12 10:44 23.36287 76.97627 34000 ft 447 kts 178°
2026-04-12 10:44 23.30056 76.97896 34000 ft 447 kts 178°
2026-04-12 10:45 23.23830 76.98164 34000 ft 447 kts 178°
2026-04-12 10:45 23.17605 76.98439 33998 ft 447 kts 176°
2026-04-12 10:46 23.11507 76.99532 34001 ft 447 kts 168°
2026-04-12 10:46 23.05425 77.01042 34000 ft 447 kts 166°
2026-04-12 10:47 22.99365 77.02629 34001 ft 447 kts 166°
2026-04-12 10:47 22.93330 77.04204 33999 ft 448 kts 166°
2026-04-12 10:48 22.87267 77.05771 34001 ft 447 kts 167°
2026-04-12 10:48 22.81237 77.07320 34001 ft 447 kts 167°
2026-04-12 10:49 22.75167 77.08877 34000 ft 446 kts 167°
2026-04-12 10:49 22.69124 77.10426 34001 ft 446 kts 167°
2026-04-12 10:50 22.63098 77.11970 34000 ft 446 kts 167°
2026-04-12 10:50 22.57036 77.13521 34001 ft 446 kts 167°
2026-04-12 10:51 22.50986 77.15069 33999 ft 446 kts 167°
2026-04-12 10:51 22.44976 77.16605 34000 ft 446 kts 167°
2026-04-12 10:52 22.38909 77.18154 34001 ft 446 kts 167°
2026-04-12 10:52 22.32894 77.19700 34001 ft 446 kts 166°
2026-04-12 10:53 22.26849 77.21261 34000 ft 446 kts 166°
2026-04-12 10:53 22.21834 77.22556 34001 ft 446 kts 166°
2026-04-12 10:54 22.15774 77.24119 34000 ft 446 kts 166°
2026-04-12 10:54 22.09724 77.25677 33998 ft 447 kts 166°
2026-04-12 10:55 22.03699 77.27226 33998 ft 447 kts 166°
2026-04-12 10:55 21.97623 77.28787 34001 ft 448 kts 166°
2026-04-12 10:56 21.91565 77.30343 34000 ft 448 kts 166°
2026-04-12 10:56 21.85528 77.31892 34000 ft 447 kts 166°
2026-04-12 10:57 21.79467 77.33445 34000 ft 447 kts 166°
2026-04-12 10:57 21.73438 77.34989 34000 ft 447 kts 166°
2026-04-12 10:58 21.67375 77.36541 33997 ft 447 kts 166°
2026-04-12 10:58 21.61315 77.38089 34000 ft 448 kts 167°
2026-04-12 10:59 21.55242 77.39556 33999 ft 449 kts 167°
2026-04-12 10:59 21.49123 77.40979 34000 ft 449 kts 168°
2026-04-12 11:00 21.42994 77.42402 34001 ft 450 kts 168°
2026-04-12 11:00 21.36900 77.43824 34001 ft 449 kts 168°
2026-04-12 11:01 21.30807 77.45249 34000 ft 447 kts 167°
2026-04-12 11:01 21.24754 77.46665 34001 ft 447 kts 167°
2026-04-12 11:02 21.18675 77.48085 33999 ft 446 kts 168°
2026-04-12 11:02 21.12615 77.49500 34001 ft 446 kts 168°
2026-04-12 11:03 21.06548 77.50914 34000 ft 446 kts 168°
2026-04-12 11:03 21.00462 77.52332 34000 ft 446 kts 168°
2026-04-12 11:04 20.94395 77.53745 34000 ft 446 kts 168°
2026-04-12 11:04 20.88363 77.55148 34000 ft 446 kts 168°
2026-04-12 11:05 20.82281 77.56568 34000 ft 446 kts 167°
2026-04-12 11:05 20.76205 77.58002 34001 ft 446 kts 167°
2026-04-12 11:06 20.70169 77.59428 34000 ft 446 kts 167°
2026-04-12 11:06 20.64102 77.60859 34000 ft 446 kts 167°
2026-04-12 11:07 20.58045 77.62285 34000 ft 446 kts 167°
2026-04-12 11:07 20.51982 77.63712 34001 ft 447 kts 167°
2026-04-12 11:08 20.45881 77.65145 34000 ft 447 kts 167°
2026-04-12 11:08 20.39831 77.66566 34000 ft 447 kts 167°
2026-04-12 11:09 20.33745 77.67994 34001 ft 447 kts 167°
2026-04-12 11:09 20.27667 77.69419 34000 ft 447 kts 167°
2026-04-12 11:10 20.21624 77.70835 34000 ft 447 kts 167°
2026-04-12 11:10 20.15539 77.72260 34000 ft 446 kts 167°
2026-04-12 11:11 20.09461 77.73681 34000 ft 446 kts 167°
2026-04-12 11:11 20.03423 77.75093 34001 ft 446 kts 167°
2026-04-12 11:12 19.97344 77.76512 34000 ft 446 kts 167°
2026-04-12 11:12 19.91265 77.77931 33998 ft 446 kts 167°
2026-04-12 11:13 19.85226 77.79339 34001 ft 446 kts 167°
2026-04-12 11:13 19.79153 77.80754 34000 ft 446 kts 167°
2026-04-12 11:14 19.73105 77.82162 34000 ft 446 kts 167°
2026-04-12 11:14 19.67018 77.83578 34000 ft 446 kts 167°
2026-04-12 11:15 19.60974 77.84983 34000 ft 446 kts 167°
2026-04-12 11:15 19.54891 77.86396 34001 ft 447 kts 167°
2026-04-12 11:16 19.48805 77.87808 34001 ft 447 kts 167°
2026-04-12 11:16 19.42757 77.89211 34000 ft 447 kts 167°
2026-04-12 11:17 19.36678 77.90620 34000 ft 447 kts 167°
2026-04-12 11:17 19.30601 77.92027 33998 ft 447 kts 167°
2026-04-12 11:18 19.24548 77.93435 34001 ft 447 kts 167°
2026-04-12 11:18 19.18467 77.94856 34001 ft 447 kts 167°
2026-04-12 11:19 19.12380 77.96277 34000 ft 447 kts 167°
2026-04-12 11:19 19.06342 77.97685 34000 ft 446 kts 167°
2026-04-12 11:20 19.00226 77.98877 34000 ft 446 kts 178°
2026-04-12 11:20 18.97133 77.98739 34000 ft 445 kts 189°
2026-04-12 11:20 18.94183 77.97921 34003 ft 444 kts 201°
2026-04-12 11:21 18.88541 77.95380 34000 ft 446 kts 204°
2026-04-12 11:21 18.82877 77.92691 34000 ft 446 kts 204°
2026-04-12 11:22 18.77217 77.90011 34000 ft 446 kts 204°
2026-04-12 11:22 18.71542 77.87331 34000 ft 446 kts 204°
2026-04-12 11:23 18.65888 77.84664 33999 ft 446 kts 204°
2026-04-12 11:23 18.60208 77.81988 34000 ft 446 kts 204°
2026-04-12 11:24 18.54553 77.79325 33999 ft 446 kts 204°
2026-04-12 11:24 18.48880 77.76656 34000 ft 446 kts 204°
2026-04-12 11:25 18.43197 77.73985 34000 ft 446 kts 204°
2026-04-12 11:25 18.37520 77.71317 33970 ft 446 kts 204°
2026-04-12 11:26 18.34727 77.70006 33722 ft 443 kts 204°
2026-04-12 11:26 18.31908 77.68683 33474 ft 443 kts 204°
2026-04-12 11:26 18.29083 77.67357 33223 ft 444 kts 204°
2026-04-12 11:26 18.26262 77.66034 32973 ft 444 kts 204°
2026-04-12 11:27 18.23423 77.64703 32712 ft 445 kts 204°
2026-04-12 11:27 18.20588 77.63374 32478 ft 446 kts 204°
2026-04-12 11:27 18.17754 77.62047 32226 ft 446 kts 204°
2026-04-12 11:27 18.14936 77.60727 31875 ft 444 kts 204°
2026-04-12 11:28 18.12144 77.59420 31439 ft 438 kts 204°
2026-04-12 11:28 18.09375 77.58123 30950 ft 433 kts 204°
2026-04-12 11:28 18.06625 77.56837 30451 ft 429 kts 204°
2026-04-12 11:28 18.03945 77.55583 29964 ft 425 kts 204°
2026-04-12 11:29 18.01249 77.54323 29468 ft 421 kts 204°
2026-04-12 11:29 17.98584 77.53077 28994 ft 417 kts 204°
2026-04-12 11:29 17.95941 77.51877 28514 ft 413 kts 200°
2026-04-12 11:29 17.93186 77.51103 27986 ft 409 kts 186°
2026-04-12 11:30 17.90362 77.51096 27490 ft 405 kts 171°
2026-04-12 11:30 17.87634 77.51802 27013 ft 401 kts 162°
2026-04-12 11:30 17.85010 77.52739 26544 ft 398 kts 160°
2026-04-12 11:30 17.82408 77.53709 26070 ft 394 kts 160°
2026-04-12 11:31 17.79829 77.54669 25603 ft 391 kts 160°
2026-04-12 11:31 17.77276 77.55612 25152 ft 387 kts 160°
2026-04-12 11:31 17.74734 77.56547 24681 ft 384 kts 161°
2026-04-12 11:31 17.72255 77.57455 24217 ft 381 kts 161°
2026-04-12 11:32 17.69756 77.58369 23758 ft 378 kts 161°
2026-04-12 11:32 17.67267 77.59278 23260 ft 376 kts 161°
2026-04-12 11:32 17.64796 77.60179 22803 ft 373 kts 161°
2026-04-12 11:32 17.62355 77.61070 22361 ft 370 kts 161°
2026-04-12 11:33 17.59934 77.61952 21914 ft 367 kts 161°
2026-04-12 11:33 17.57562 77.62832 21451 ft 364 kts 160°
2026-04-12 11:33 17.55183 77.63729 20979 ft 362 kts 160°
2026-04-12 11:33 17.52822 77.64621 20529 ft 359 kts 160°
2026-04-12 11:34 17.50484 77.65505 20079 ft 356 kts 160°
2026-04-12 11:34 17.48148 77.66388 19636 ft 353 kts 160°
2026-04-12 11:34 17.45841 77.67259 19196 ft 351 kts 160°
2026-04-12 11:34 17.43585 77.68111 18771 ft 348 kts 160°
2026-04-12 11:35 17.41309 77.68970 18330 ft 346 kts 160°
2026-04-12 11:35 17.39048 77.69823 17900 ft 343 kts 160°
2026-04-12 11:35 17.36808 77.70668 17474 ft 340 kts 160°
2026-04-12 11:35 17.34578 77.71509 17111 ft 342 kts 160°
2026-04-12 11:36 17.32332 77.72356 16626 ft 352 kts 160°
2026-04-12 11:36 17.30013 77.73230 15978 ft 349 kts 160°
2026-04-12 11:36 17.27749 77.74084 15456 ft 343 kts 160°
2026-04-12 11:36 17.25550 77.75071 14945 ft 343 kts 149°
2026-04-12 11:37 17.23740 77.76634 14423 ft 342 kts 129°
2026-04-12 11:37 17.22590 77.78813 13897 ft 339 kts 107°
2026-04-12 11:37 17.22303 77.81203 13393 ft 335 kts 85°
2026-04-12 11:37 17.22843 77.83556 12897 ft 332 kts 68°
2026-04-12 11:38 17.23781 77.85752 12383 ft 329 kts 64°
2026-04-12 11:38 17.24719 77.87931 11903 ft 327 kts 71°
2026-04-12 11:38 17.25154 77.90250 11402 ft 324 kts 89°
2026-04-12 11:38 17.25089 77.92557 11130 ft 315 kts 94°
2026-04-12 11:39 17.24919 77.94834 10749 ft 309 kts 95°
2026-04-12 11:39 17.24737 77.97058 10320 ft 303 kts 95°
2026-04-12 11:39 17.24620 77.98488 10084 ft 294 kts 95°
2026-04-12 11:39 17.24395 78.01274 9350 ft 287 kts 95°
2026-04-12 11:40 17.24284 78.02678 9019 ft 285 kts 95°
2026-04-12 11:40 17.24072 78.05346 8730 ft 270 kts 95°
2026-04-12 11:40 17.23920 78.07276 8396 ft 263 kts 95°
2026-04-12 11:40 17.23818 78.08573 8038 ft 266 kts 95°
2026-04-12 11:41 17.23669 78.10463 7720 ft 258 kts 95°
2026-04-12 11:41 17.23525 78.12296 7357 ft 250 kts 95°
2026-04-12 11:41 17.23382 78.14108 6876 ft 250 kts 95°
2026-04-12 11:41 17.23240 78.15909 6436 ft 247 kts 95°
2026-04-12 11:42 17.23099 78.17692 6043 ft 243 kts 95°
2026-04-12 11:42 17.22961 78.19436 5645 ft 239 kts 95°
2026-04-12 11:42 17.22825 78.21155 5278 ft 234 kts 95°
2026-04-12 11:43 17.22623 78.24514 4524 ft 231 kts 91°
2026-04-12 11:43 17.22596 78.26176 4078 ft 231 kts 91°
2026-04-12 11:43 17.22535 78.27838 3778 ft 227 kts 90°
2026-04-12 11:43 17.22569 78.29429 3721 ft 207 kts 88°
2026-04-12 11:44 17.22610 78.30843 3727 ft 183 kts 88°
2026-04-12 11:44 17.22636 78.32121 3732 ft 168 kts 89°
2026-04-12 11:44 17.22653 78.33289 3524 ft 155 kts 89°
2026-04-12 11:44 17.22673 78.34381 3303 ft 148 kts 89°
2026-04-12 11:45 17.22697 78.35460 3099 ft 148 kts 89°
2026-04-12 11:45 17.22721 78.36538 2898 ft 148 kts 89°
2026-04-12 11:45 17.22744 78.37606 2702 ft 148 kts 89°
2026-04-12 11:45 17.22767 78.38684 2505 ft 148 kts 89°
2026-04-12 11:46 17.22790 78.39756 2309 ft 147 kts 89°
2026-04-12 11:46 17.22814 78.40828 2113 ft 147 kts 89°
2026-04-12 11:46 17.22837 78.41887 1976 ft 141 kts 89°
2026-04-12 11:46 17.22879 78.42804 1982 ft 95 kts 89°
2026-04-12 11:47 17.22881 78.43180 1988 ft 8 kts 89°
2026-04-12 11:47 17.22882 78.43206 1992 ft 8 kts 88°
2026-04-12 11:47 17.22891 78.43293 1990 ft 16 kts 79°
2026-04-12 11:47 17.22933 78.43426 1991 ft 21 kts 64°
2026-04-12 11:48 17.23000 78.43550 1993 ft 18 kts 56°
2026-04-12 11:48 17.23064 78.43654 1994 ft 16 kts 56°
2026-04-12 11:48 17.23155 78.43700 1993 ft 15 kts 360°
2026-04-12 11:48 17.23254 78.43699 1993 ft 14 kts 359°
2026-04-12 11:49 17.23332 78.43664 1994 ft 11 kts 304°
2026-04-12 11:49 17.23338 78.43597 1993 ft 9 kts 269°
2026-04-12 11:49 17.23338 78.43515 1991 ft 13 kts 270°
2026-04-12 11:49 17.23348 78.43422 1990 ft 10 kts 275°
2026-04-12 11:50 17.23340 78.43366 1992 ft 8 kts 269°
2026-04-12 11:50 17.23335 78.43306 1989 ft 10 kts 265°
2026-04-12 11:50 17.23358 78.43248 1988 ft 10 kts 352°
2026-04-12 11:50 17.23429 78.43245 1990 ft 0 kts 359°